This is the latest recevied weather packets stored in our database for station/object KF0JHJ. If no packets are shown the sender has not sent any weather packets the latest 10 day(s).
| Time | Temp. | Humidity | Pressure | Rain* | Wind** | Luminosity | Snow |
|---|---|---|---|---|---|---|---|
| 1778007367 | 8.89° C | 47% | 1009.1 hPa | - | - | 126 W/m² | - |
| 1778007063 | 9.44° C | 46% | 1009.2 hPa | - | - | 147 W/m² | - |
| 1778006759 | 8.89° C | 47% | 1008.9 hPa | - | - | 169 W/m² | - |
| 1778006456 | 9.44° C | 46% | 1009 hPa | - | - | 190 W/m² | - |
| 1778006153 | 9.44° C | 44% | 1008.9 hPa | - | - | 341 W/m² | - |
| 1778005851 | 9.44° C | 47% | 1009.2 hPa | - | - | 248 W/m² | - |
| 1778005547 | 9.44° C | 48% | 1009.1 hPa | - | - | 251 W/m² | - |
| 1778005244 | 9.44° C | 44% | 1009 hPa | - | - | 302 W/m² | - |
| 1778004941 | 8.89° C | 49% | 1009.2 hPa | - | - | 275 W/m² | - |
| 1778004638 | 8.33° C | 47% | 1009.1 hPa | - | - | 174 W/m² | - |
| 1778004333 | 8.33° C | 47% | 1009.2 hPa | - | - | 119 W/m² | - |
| 1778004032 | 8.33° C | 47% | 1009.2 hPa | - | - | 103 W/m² | - |
| 1778003732 | 8.89° C | 47% | 1009.2 hPa | - | - | 113 W/m² | - |
| 1778003429 | 8.89° C | 46% | 1009.1 hPa | - | - | 147 W/m² | - |
| 1778003126 | 9.44° C | 48% | 1008.9 hPa | - | - | 187 W/m² | - |
| 1778002822 | 8.89° C | 46% | 1009.2 hPa | - | - | 207 W/m² | - |
| 1778002519 | 8.89° C | 49% | 1009 hPa | - | - | 196 W/m² | - |
| 1778002216 | 9.44° C | 47% | 1009.3 hPa | - | - | 186 W/m² | - |
| 1778001914 | 9.44° C | 49% | 1009.1 hPa | - | - | 213 W/m² | - |
| 1778001609 | 8.89° C | 51% | 1009.2 hPa | - | - | 746 W/m² | - |
| 1778001305 | 8.33° C | 50% | 1009.3 hPa | - | - | 264 W/m² | - |
| 1778001002 | 7.78° C | 51% | 1009.3 hPa | - | - | 185 W/m² | - |
| 1778000698 | 7.78° C | 51% | 1009.2 hPa | - | - | 135 W/m² | - |
| 1778000394 | 8.33° C | 51% | 1009.2 hPa | - | - | 120 W/m² | - |
| 1778000090 | 8.33° C | 48% | 1009.3 hPa | - | - | 116 W/m² | - |
* Rain since midnight (hover to see other rain measurements)
** Current wind speed in m/s (hover to see current wind gust speed)